KD8BMB Weather Reports


Display with metric or nautical units.
time (UTC)temp
F
wind
direction
speed
MPH
gust
MPH
rain 1hr
in
rain 24hr
in
rain mn
in
humidity
%
barometer
mb
20260508000006 51 289 3.0 3.0 0.00 0.00 0.00 50 1010.9
20260507235503 51 217 3.0 5.0 0.00 0.00 0.00 49 1010.6
20260507235000 51 322 2.0 3.0 0.00 0.00 0.00 49 1010.6
20260507234457 52 317 8.0 14.0 0.00 0.00 0.00 48 1010.6
20260507233953 52 293 3.0 5.0 0.00 0.00 0.00 47 1010.7
20260507233450 52 290 3.0 3.0 0.00 0.00 0.00 47 1010.6
20260507232949 52 290 5.0 7.0 0.00 0.00 0.00 46 1010.6
20260507232444 52 278 3.0 3.0 0.00 0.00 0.00 46 1010.6
20260507231942 53 227 7.0 10.0 0.00 0.00 0.00 45 1010.6
20260507231438 53 322 5.0 6.0 0.00 0.00 0.00 45 1010.5
20260507230935 53 234 2.0 2.0 0.00 0.00 0.00 46 1010.5
20260507230432 53 312 2.0 2.0 0.00 0.00 0.00 46 1010.6
20260507225933 52 302 6.0 11.0 0.00 0.00 0.00 45 1010.7
20260507225429 53 261 1.0 2.0 0.00 0.00 0.00 45 1010.6
20260507224925 53 289 2.0 2.0 0.00 0.00 0.00 46 1010.7
20260507224421 53 268 4.0 6.0 0.00 0.00 0.00 46 1010.7
20260507223918 53 311 2.0 3.0 0.00 0.00 0.00 46 1010.8
20260507223414 53 261 7.0 10.0 0.00 0.00 0.00 45 1010.8
20260507222911 53 287 2.0 3.0 0.00 0.00 0.00 45 1010.8
20260507222408 54 286 6.0 7.0 0.00 0.00 0.00 45 1010.6
20260507221905 54 21 0.0 0.0 0.00 0.00 0.00 45 1010.6
20260507221401 53 271 7.0 10.0 0.00 0.00 0.00 46 1010.8
20260507220857 53 249 5.0 6.0 0.00 0.00 0.00 46 1011.0
20260507220355 52 221 3.0 5.0 0.00 0.00 0.00 47 1010.8
20260507215852 53 284 4.0 6.0 0.00 0.00 0.00 46 1010.9
20260507215349 54 220 5.0 6.0 0.00 0.00 0.00 45 1010.8
20260507214846 53 283 9.0 11.0 0.00 0.00 0.00 46 1010.8
20260507214343 53 231 5.0 6.0 0.00 0.00 0.00 46 1010.8
20260507213838 53 234 4.0 6.0 0.00 0.00 0.00 47 1010.9
20260507213335 52 282 3.0 3.0 0.00 0.00 0.00 47 1010.8
20260507212832 53 287 8.0 10.0 0.00 0.00 0.00 46 1010.8
20260507212328 53 188 5.0 7.0 0.00 0.00 0.00 46 1010.7
20260507211824 53 229 7.0 11.0 0.00 0.00 0.00 46 1011.0
20260507211321 54 241 8.0 11.0 0.00 0.00 0.00 45 1010.9
20260507210818 53 245 1.0 1.0 0.00 0.00 0.00 46 1010.8
20260507210315 52 268 1.0 2.0 0.00 0.00 0.00 46 1010.9
20260507205811 53 246 2.0 2.0 0.00 0.00 0.00 46 1010.8
20260507205309 53 250 3.0 5.0 0.00 0.00 0.00 45 1010.8
20260507204804 53 239 2.0 3.0 0.00 0.00 0.00 45 1011.1
20260507204302 54 283 6.0 9.0 0.00 0.00 0.00 43 1011.0
20260507203800 53 320 7.0 9.0 0.00 0.00 0.00 45 1010.9
20260507203258 52 276 1.0 2.0 0.00 0.00 0.00 46 1010.8
20260507202754 52 243 2.0 2.0 0.00 0.00 0.00 47 1011.0
20260507202249 52 272 3.0 7.0 0.00 0.00 0.00 45 1011.1
20260507201744 52 249 8.0 10.0 0.00 0.00 0.00 44 1011.1
20260507201241 54 229 4.0 5.0 0.00 0.00 0.00 44 1011.1
20260507200738 55 317 6.0 11.0 0.00 0.00 0.00 43 1011.3
20260507200234 53 293 3.0 6.0 0.00 0.00 0.00 44 1011.2
20260507195730 54 216 5.0 9.0 0.00 0.00 0.00 44 1011.2
20260507195228 54 331 3.0 5.0 0.00 0.00 0.00 44 1011.2
20260507194725 54 344 3.0 5.0 0.00 0.00 0.00 44 1011.4
20260507194221 55 356 0.0 1.0 0.00 0.00 0.00 42 1011.3
20260507193718 52 84 2.0 5.0 0.00 0.00 0.00 45 1011.5
20260507193214 51 297 8.0 11.0 0.00 0.00 0.00 46 1011.5
20260507192710 53 232 4.0 6.0 0.00 0.00 0.00 45 1011.6
20260507192208 53 174 9.0 13.0 0.00 0.00 0.00 48 1011.5
20260507191703 52 285 7.0 8.0 0.00 0.00 0.00 46 1011.6
20260507191201 54 277 4.0 6.0 0.00 0.00 0.00 47 1011.6
20260507190657 51 279 1.0 2.0 0.00 0.00 0.00 48 1011.7
20260507190156 51 246 2.0 5.0 0.00 0.00 0.00 49 1011.8
20260507185654 51 252 3.0 3.0 0.00 0.00 0.00 48 1011.5
20260507185150 51 309 0.0 1.0 0.00 0.00 0.00 48 1011.9
20260507184648 51 329 5.0 6.0 0.00 0.00 0.00 46 1011.6
20260507184146 52 304 5.0 6.0 0.00 0.00 0.00 47 1012.0
20260507183642 53 215 2.0 5.0 0.00 0.00 0.00 46 1011.7
20260507183139 52 275 2.0 3.0 0.00 0.00 0.00 49 1011.9
20260507182636 51 253 7.0 9.0 0.00 0.00 0.00 49 1011.9
20260507182132 51 256 6.0 8.0 0.00 0.00 0.00 49 1011.8
20260507181628 51 328 1.0 1.0 0.00 0.00 0.00 50 1012.1
20260507181125 51 233 5.0 8.0 0.00 0.00 0.00 49 1012.2
20260507180621 50 281 5.0 7.0 0.00 0.00 0.00 50 1012.2
20260507180119 50 271 6.0 8.0 0.00 0.00 0.00 51 1012.3
20260507175614 49 220 6.0 9.0 0.00 0.00 0.00 51 1012.2
20260507175112 50 275 3.0 5.0 0.00 0.00 0.00 50 1012.3
20260507174609 50 294 3.0 3.0 0.00 0.00 0.00 49 1012.2
20260507174107 50 286 2.0 5.0 0.00 0.00 0.00 50 1012.1
20260507173604 49 2 1.0 2.0 0.00 0.00 0.00 53 1012.6
20260507173100 49 329 3.0 3.0 0.00 0.00 0.00 53 1012.5
20260507172556 50 273 3.0 3.0 0.00 0.00 0.00 52 1012.4
20260507172054 50 324 0.0 1.0 0.00 0.00 0.00 52 1012.6
20260507171549 50 214 1.0 2.0 0.00 0.00 0.00 53 1012.7
20260507171046 50 290 7.0 9.0 0.00 0.00 0.00 51 1012.7
20260507170543 50 266 3.0 3.0 0.00 0.00 0.00 53 1012.6
20260507170040 50 215 8.0 10.0 0.00 0.00 0.00 52 1012.6
20260507165535 51 255 5.0 6.0 0.00 0.00 0.00 53 1012.6
20260507165032 50 214 2.0 2.0 0.00 0.00 0.00 52 1012.7
20260507164528 50 271 5.0 6.0 0.00 0.00 0.00 51 1012.7
20260507164026 50 267 3.0 5.0 0.00 0.00 0.00 53 1012.5
20260507163522 50 193 5.0 6.0 0.00 0.00 0.00 51 1012.6
20260507163021 50 301 2.0 3.0 0.00 0.00 0.00 51 1013.2
20260507162515 51 294 3.0 5.0 0.00 0.00 0.00 51 1013.0
20260507162012 51 317 2.0 3.0 0.00 0.00 0.00 50 1012.9
20260507161509 51 299 6.0 8.0 0.00 0.00 0.00 52 1012.9
20260507161006 50 262 4.0 6.0 0.00 0.00 0.00 53 1013.2
20260507160501 50 227 5.0 7.0 0.00 0.00 0.00 53 1013.2
20260507155957 50 281 4.0 5.0 0.00 0.00 0.00 51 1013.0
20260507155453 49 210 5.0 6.0 0.00 0.00 0.00 53 1013.2
20260507154950 49 270 9.0 11.0 0.00 0.00 0.00 53 1012.7
20260507154447 50 306 2.0 3.0 0.00 0.00 0.00 56 1013.1
20260507153944 50 217 5.0 8.0 0.00 0.00 0.00 56 1013.0
20260507153441 49 262 7.0 9.0 0.00 0.00 0.00 54 1013.2
20260507152937 50 191 9.0 13.0 0.00 0.00 0.00 54 1013.0
20260507152433 50 198 3.0 5.0 0.00 0.00 0.00 58 1013.0
20260507151930 50 209 4.0 6.0 0.00 0.00 0.00 56 1012.9
20260507151426 50 260 3.0 3.0 0.00 0.00 0.00 58 1013.0
20260507150923 49 244 1.0 2.0 0.00 0.00 0.00 60 1013.0
20260507150420 50 214 4.0 6.0 0.00 0.00 0.00 60 1013.0
20260507145916 50 12 5.0 8.0 0.00 0.00 0.00 61 1012.9
20260507145412 50 284 3.0 5.0 0.00 0.00 0.00 61 1013.0
20260507144909 51 330 9.0 10.0 0.00 0.00 0.00 59 1012.6
20260507144406 50 305 5.0 6.0 0.00 0.00 0.00 59 1012.6
20260507143903 50 333 3.0 3.0 0.00 0.00 0.00 60 1012.6
20260507143401 51 287 3.0 6.0 0.00 0.00 0.00 58 1012.7
20260507142857 50 292 2.0 2.0 0.00 0.00 0.00 57 1012.6
20260507142353 51 339 5.0 6.0 0.00 0.00 0.00 58 1012.6
20260507141850 51 245 3.0 3.0 0.00 0.00 0.00 56 1012.6
20260507141346 50 327 3.0 6.0 0.00 0.00 0.00 57 1012.9
20260507140843 50 308 8.0 9.0 0.00 0.00 0.00 55 1012.6
20260507140340 50 285 5.0 6.0 0.00 0.00 0.00 56 1012.7
20260507135838 50 266 1.0 2.0 0.00 0.00 0.00 60 1012.7
20260507135334 50 249 2.0 3.0 0.00 0.00 0.00 59 1012.7
20260507134832 51 228 1.0 2.0 0.00 0.00 0.00 59 1013.0
20260507134328 48 265 1.0 1.0 0.00 0.00 0.00 62 1012.9
20260507133824 49 281 1.0 1.0 0.00 0.00 0.00 62 1012.9
20260507133319 48 244 3.0 5.0 0.00 0.00 0.00 63 1013.0
20260507132818 48 273 2.0 2.0 0.00 0.00 0.00 64 1012.9
20260507132314 49 287 1.0 1.0 0.00 0.00 0.00 64 1012.9
20260507131812 49 278 0.0 0.0 0.00 0.00 0.00 65 1012.9
20260507131308 47 259 2.0 2.0 0.00 0.00 0.00 67 1012.6
20260507130805 47 274 3.0 3.0 0.00 0.00 0.00 68 1012.9
20260507130303 46 322 0.0 1.0 0.00 0.00 0.00 71 1012.9
20260507125801 46 289 3.0 3.0 0.00 0.00 0.00 72 1013.1
20260507125258 46 277 1.0 2.0 0.00 0.00 0.00 73 1012.9
20260507124755 45 201 1.0 1.0 0.00 0.00 0.00 76 1012.9
20260507124251 44 327 0.0 0.0 0.00 0.00 0.00 77 1012.9
20260507123750 44 254 1.0 2.0 0.00 0.00 0.00 78 1012.6
20260507123247 43 300 1.0 1.0 0.00 0.00 0.00 80 1012.7
20260507122743 42 311 0.0 0.0 0.00 0.00 0.00 82 1013.0
20260507122238 41 258 0.0 0.0 0.00 0.00 0.00 82 1013.1
20260507121734 40 284 0.0 0.0 0.00 0.00 0.00 84 1012.9
20260507121230 40 287 0.0 0.0 0.00 0.00 0.00 84 1012.9
20260507120727 40 265 0.0 0.0 0.00 0.00 0.00 84 1012.9
20260507120224 40 278 0.0 0.0 0.00 0.00 0.00 85 1013.0
20260507115720 39 287 1.0 1.0 0.00 0.00 0.00 86 1013.0
20260507115216 38 283 0.0 0.0 0.00 0.00 0.00 89 1012.6
20260507114711 38 296 0.0 0.0 0.00 0.00 0.00 94 1013.0
20260507114209 37 292 0.0 0.0 0.00 0.00 0.00 96 1012.9
20260507113706 37 288 0.0 0.0 0.00 0.00 0.00 97 1012.9
20260507113203 36 303 0.0 0.0 0.00 0.00 0.00 98 1012.7
20260507112701 36 303 0.0 0.0 0.00 0.00 0.00 98 1013.0
20260507112158 35 294 0.0 0.0 0.00 0.00 0.00 98 1012.6
20260507111655 35 290 0.0 0.0 0.00 0.00 0.00 99 1012.6
20260507111152 35 291 0.0 0.0 0.00 0.00 0.00 99 1012.6
20260507110647 34 284 0.0 0.0 0.00 0.00 0.00 99 1012.6
20260507110144 34 279 0.0 0.0 0.00 0.00 0.00 99 1012.4
20260507105641 34 278 0.0 0.0 0.00 0.00 0.00 99 1012.3
20260507105137 33 286 0.0 0.0 0.00 0.00 0.00 99 1012.4
20260507104635 33 318 0.0 0.0 0.00 0.00 0.00 98 1012.4
20260507104131 33 325 0.0 0.0 0.00 0.00 0.00 98 1012.3
20260507103627 33 283 0.0 0.0 0.00 0.00 0.00 98 1012.5
20260507103124 34 283 0.0 0.0 0.00 0.00 0.00 98 1012.6
20260507102621 34 282 0.0 0.0 0.00 0.00 0.00 98 1012.3
20260507102117 34 297 0.0 0.0 0.00 0.00 0.00 97 1012.4
20260507101613 34 300 0.0 0.0 0.00 0.00 0.00 97 1012.4
20260507101109 34 306 0.0 0.0 0.00 0.00 0.00 97 1012.3
20260507100606 34 317 0.0 0.0 0.00 0.00 0.00 97 1012.3
20260507100104 35 303 0.0 0.0 0.00 0.00 0.00 96 1012.3
20260507095602 34 38 0.0 0.0 0.00 0.00 0.00 96 1012.1
20260507095058 34 355 0.0 0.0 0.00 0.00 0.00 96 1012.4
20260507094554 35 307 0.0 0.0 0.00 0.00 0.00 95 1012.3
20260507094051 35 325 0.0 0.0 0.00 0.00 0.00 95 1012.3
20260507093549 35 317 0.0 0.0 0.00 0.00 0.00 95 1012.4
20260507093048 35 300 0.0 0.0 0.00 0.00 0.00 94 1012.4
20260507092544 35 259 0.0 0.0 0.00 0.00 0.00 94 1012.3
20260507092040 36 284 0.0 0.0 0.00 0.00 0.00 93 1012.2
20260507091537 36 283 0.0 0.0 0.00 0.00 0.00 93 1012.3
20260507091033 36 285 0.0 0.0 0.00 0.00 0.00 92 1012.5
20260507090529 36 297 0.0 0.0 0.00 0.00 0.00 92 1012.3
20260507090026 37 23 0.0 0.0 0.00 0.00 0.00 92 1012.5
20260507085523 36 312 0.0 0.0 0.00 0.00 0.00 92 1012.4
20260507085020 37 318 0.0 0.0 0.00 0.00 0.00 92 1012.5
20260507084517 36 355 0.0 0.0 0.00 0.00 0.00 92 1012.6
20260507084014 36 32 0.0 0.0 0.00 0.00 0.00 92 1012.5
20260507083510 36 296 0.0 0.0 0.00 0.00 0.00 92 1012.7
20260507083007 36 296 0.0 0.0 0.00 0.00 0.00 92 1012.7
20260507082503 36 296 0.0 0.0 0.00 0.00 0.00 92 1012.6
20260507081959 36 296 0.0 0.0 0.00 0.00 0.00 91 1012.6
20260507081455 36 296 0.0 0.0 0.00 0.00 0.00 91 1012.6
20260507080953 36 291 0.0 0.0 0.00 0.00 0.00 91 1012.7
20260507080448 36 285 0.0 0.0 0.00 0.00 0.00 91 1012.6
20260507075944 35 292 0.0 0.0 0.00 0.00 0.00 92 1012.4
20260507075441 35 293 0.0 0.0 0.00 0.00 0.00 92 1012.5
20260507074937 36 295 0.0 0.0 0.00 0.00 0.00 92 1012.6
20260507074433 36 304 0.0 0.0 0.00 0.00 0.00 91 1012.5
20260507073931 36 338 0.0 0.0 0.00 0.00 0.00 91 1012.7
20260507073422 36 336 0.0 0.0 0.00 0.00 0.00 91 1012.6
20260507072919 36 287 0.0 0.0 0.00 0.00 0.00 90 1012.4
20260507072417 36 287 0.0 0.0 0.00 0.00 0.00 89 1012.6
20260507071915 37 284 0.0 0.0 0.00 0.00 0.00 89 1012.7
20260507071411 37 284 0.0 0.0 0.00 0.00 0.00 89 1012.6
20260507070907 37 32 0.0 0.0 0.00 0.00 0.00 89 1012.4
20260507070405 37 28 0.0 0.0 0.00 0.00 0.00 90 1012.5
20260507065902 37 326 0.0 0.0 0.00 0.00 0.00 89 1012.5
20260507065358 36 31 0.0 0.0 0.00 0.00 0.00 90 1012.5
20260507064855 36 302 0.0 0.0 0.00 0.00 0.00 89 1012.4
20260507064354 37 293 0.0 0.0 0.00 0.00 0.00 89 1012.7
20260507063851 37 278 0.0 0.0 0.00 0.00 0.00 89 1012.5
20260507063348 37 264 0.0 0.0 0.00 0.00 0.00 88 1012.5
20260507062845 37 307 0.0 0.0 0.00 0.00 0.00 88 1013.0
20260507062341 37 323 0.0 0.0 0.00 0.00 0.00 87 1012.6
20260507061839 37 306 0.0 0.0 0.00 0.00 0.00 87 1012.7
20260507061337 38 305 0.0 0.0 0.00 0.00 0.00 86 1012.6
20260507060836 38 283 0.0 0.0 0.00 0.00 0.00 86 1012.7
20260507060332 38 302 0.0 0.0 0.00 0.00 0.00 85 1012.7
20260507055829 39 328 0.0 0.0 0.00 0.00 0.00 83 1012.9
20260507055324 39 322 0.0 0.0 0.00 0.00 0.00 82 1012.7
20260507054821 39 39 0.0 1.0 0.00 0.00 0.00 82 1012.6
20260507054316 40 267 0.0 0.0 0.00 0.00 0.00 81 1012.6
20260507053814 40 265 0.0 0.0 0.00 0.00 0.00 81 1012.7
20260507053312 40 276 0.0 0.0 0.00 0.00 0.00 80 1012.7
20260507052811 40 267 0.0 0.0 0.00 0.00 0.00 79 1012.7
20260507052307 41 343 0.0 0.0 0.00 0.00 0.00 78 1012.7
20260507051805 41 284 0.0 0.0 0.00 0.00 0.00 77 1012.7
20260507051302 42 284 0.0 0.0 0.00 0.00 0.00 76 1012.9
20260507050758 42 284 0.0 0.0 0.00 0.00 0.00 74 1012.7
20260507050255 42 285 0.0 0.0 0.00 0.00 0.00 72 1012.9
20260507045751 43 285 0.0 0.0 0.00 0.00 0.00 72 1013.0
20260507045248 43 284 0.0 0.0 0.00 0.00 0.00 70 1012.7
20260507044746 44 285 0.0 0.0 0.00 0.00 0.00 68 1012.6
20260507044242 44 285 0.0 0.0 0.00 0.00 0.00 66 1012.7
20260507043738 44 298 0.0 0.0 0.00 0.00 0.00 64 1012.7
20260507043235 45 298 0.0 0.0 0.00 0.00 0.00 64 1012.6
20260507042731 45 299 0.0 0.0 0.00 0.00 0.00 64 1013.0
20260507042226 46 302 0.0 0.0 0.00 0.00 0.00 62 1012.7
20260507041724 46 303 0.0 0.0 0.00 0.00 0.00 62 1012.7
20260507041221 46 263 0.0 0.0 0.00 0.00 0.00 61 1013.0
20260507040718 46 349 0.0 0.0 0.00 0.00 0.00 62 1012.9
20260507040214 46 319 0.0 0.0 0.00 0.00 0.00 61 1012.7
20260507035710 47 4 0.0 0.0 0.00 0.00 0.00 59 1012.6
20260507035205 47 287 0.0 0.0 0.00 0.00 0.00 58 1012.9
20260507034702 47 256 0.0 0.0 0.00 0.00 0.00 58 1012.9
20260507034200 47 305 0.0 0.0 0.00 0.00 0.00 57 1013.0
20260507033658 47 284 1.0 1.0 0.00 0.00 0.00 57 1013.0
20260507033155 48 264 1.0 1.0 0.00 0.00 0.00 57 1013.0
20260507032653 48 308 1.0 1.0 0.00 0.00 0.00 57 1012.7
20260507032148 48 288 1.0 2.0 0.00 0.00 0.00 56 1012.5
20260507031645 47 285 1.0 1.0 0.00 0.00 0.00 58 1012.7
20260507031142 48 271 0.0 0.0 0.00 0.00 0.00 58 1012.7
20260507030639 48 300 0.0 0.0 0.00 0.00 0.00 57 1012.7
20260507030137 48 249 0.0 0.0 0.00 0.00 0.00 57 1012.6
20260507025633 48 285 0.0 0.0 0.00 0.00 0.00 57 1012.9
20260507025130 48 240 1.0 1.0 0.00 0.00 0.00 56 1012.6
20260507024628 48 270 2.0 2.0 0.00 0.00 0.00 55 1012.7
20260507024125 48 288 1.0 1.0 0.00 0.00 0.00 56 1012.7
20260507023621 48 283 0.0 0.0 0.00 0.00 0.00 55 1012.4
20260507023119 48 283 0.0 0.0 0.00 0.00 0.00 55 1012.6
20260507022615 48 278 1.0 1.0 0.00 0.00 0.00 54 1012.6
20260507022110 48 287 1.0 1.0 0.00 0.00 0.00 55 1012.5
20260507021607 49 257 1.0 1.0 0.00 0.00 0.00 54 1012.5
20260507021103 49 280 1.0 1.0 0.00 0.00 0.00 55 1012.2
20260507020602 49 297 0.0 0.0 0.00 0.00 0.00 54 1012.4
20260507020057 49 284 1.0 1.0 0.00 0.00 0.00 55 1012.2
20260507015555 49 238 2.0 2.0 0.00 0.00 0.00 55 1012.3
20260507015047 49 230 1.0 1.0 0.00 0.00 0.00 56 1012.3
20260507014543 49 281 0.0 1.0 0.00 0.00 0.00 57 1012.2
20260507014033 49 245 1.0 1.0 0.00 0.00 0.00 56 1012.1
20260507013530 49 227 1.0 1.0 0.00 0.00 0.00 57 1012.3
20260507013027 49 261 0.0 0.0 0.00 0.00 0.00 57 1012.1
20260507012524 49 278 0.0 0.0 0.00 0.00 0.00 57 1012.0
20260507012020 49 271 0.0 0.0 0.00 0.00 0.00 57 1012.0
20260507011518 49 266 0.0 0.0 0.00 0.00 0.00 57 1012.1
20260507011014 49 269 0.0 0.0 0.00 0.00 0.00 58 1012.0
20260507010509 49 269 0.0 0.0 0.00 0.00 0.00 58 1012.0
20260507010006 49 238 0.0 0.0 0.00 0.00 0.00 57 1011.9
20260507005503 50 281 0.0 0.0 0.00 0.00 0.00 57 1012.0
20260507004959 50 261 0.0 0.0 0.00 0.00 0.00 57 1011.8
20260507004456 50 244 0.0 0.0 0.00 0.00 0.00 55 1012.0
20260507003954 50 284 0.0 0.0 0.00 0.00 0.00 56 1011.9
20260507003448 50 276 0.0 0.0 0.00 0.00 0.00 55 1012.0
20260507002944 50 277 0.0 0.0 0.00 0.00 0.00 56 1012.0
20260507002441 50 311 0.0 0.0 0.00 0.00 0.00 55 1011.9
20260507001938 50 319 1.0 1.0 0.00 0.00 0.00 52 1011.9
20260507001434 50 317 0.0 0.0 0.00 0.00 0.00 52 1011.9
20260507000932 51 305 0.0 0.0 0.00 0.00 0.00 53 1011.8
20260507000427 51 309 0.0 0.0 0.00 0.00 0.00 52 1011.6